676  
ASUS41 KALY 210010  
RWRALY  
 
NEW YORK STATE HOURLY WEATHER ROUNDUP  
NATIONAL WEATHER SERVICE ALBANY NY  
700 PM EST MON NOV 20 2017  
 
NOTE: "FAIR" INDICATES FEW OR NO CLOUDS BELOW 12,000 FEET WITH NO  
SIGNIFICANT WEATHER AND/OR NO S TO VISIBILITY
.  
 
NYZ032-033-038>043-046>054-057>066-NYZ062>081-082-084-210100-  
EAST  
 
 
CITY SKY/WX TMP DP RH WIND PRES REMARKS
 
ALBANY CLOUDY 38 28 67 W6 30.05R WCI 33  
GLENS FALLS CLOUDY 36 27 69 S7 30.01R WCI 30  
POUGHKEEPSIE CLEAR 42 24 49 SW5 30.05S  
NEWBURGH MOCLDY 39 27 60 W8 30.06R WCI 34  
MONTGOMERY CLEAR 33 25 72 S5 30.05R WCI 29  
WHITE PLAINS CLEAR 41 24 51 SW10 30.07R  
ISLIP PTCLDY 42 25 50 W12 30.10R  
NEW YORK CITY PTCLDY 46 24 42 SW12G23 30.10R  
CENTRAL PARK CLEAR 44 25 47 VRB5 30.12R  

 
 
NYZ005>009-017-018-044>046-055-056-210100-  
CENTRAL  
 
 
CITY SKY/WX TMP DP RH WIND PRES REMARKS
 
FULTON MOCLDY 36 30 79 S8 29.97S WCI 30  
SYRACUSE PTCLDY 32 28 85 S3 29.98S  
ROME CLOUDY 34 31 88 CALM 30.01R  
ELMIRA CLEAR 30 24 78 W3 30.00S  
BINGHAMTON CLEAR 35 23 61 SW10 29.98R WCI 27  

 
 
NYZ026>034-041>043-087-210100-  
NORTH  
 
 
CITY SKY/WX TMP DP RH WIND PRES REMARKS
 
WATERTOWN CLOUDY 31 29 92 NE5 29.96S WCI 26  
FORT DRUM NOT AVBL  
OGDENSBURG MOCLDY 26 24 91 SE3 29.98S  
MASSENA CLOUDY 23 21 92 S3 30.00R  
SARANAC LAKE CLOUDY 22 20 92 SW6 29.91R WCI 14  
PLATTSBURGH CLOUDY 25 17 72 CALM 30.00R  

 
 
NYZ001>004-010>016-019>021-085-210100-  
WEST  
 
 
CITY SKY/WX TMP DP RH WIND PRES REMARKS
 
NIAGARA FALLS CLEAR 44 30 57 SW16 29.89F  
BUFFALO PTCLDY 37 27 67 S14 29.92S WCI 28  
DUNKIRK CLEAR 39 26 59 S18G28 29.94S WCI 30  
JAMESTOWN CLEAR 34 23 64 S14 29.97R WCI 25  
WELLSVILLE CLEAR 38 22 52 S8G20 29.96F WCI 32  
ROCHESTER PTCLDY 38 28 67 SW9 29.94F WCI 31  
PENN YAN CLEAR 39 25 57 SW8 29.96F WCI 33  

 
 
KEY  
WCI = WIND CHILL INDEX  
VSB = VISIBILITY  
HX = HEAT INDEX  

 
 
 
CLICK HERE TO GO TO PREVIOUS BULLETINS.

The Nexlab NY Page
The Nexlab VT Page
The Nexlab MA Page
The Nexlab CT Page Main Text Page